Regional Weather Roundup
Issued by NWS Albany, NY

Home | Current Version | Previous Version | Graphics & Text | Print | Product List | Glossary Off
Versions: 1 2 3 4 5 6 7 8 9 10 11 12 13 14 15 16 17 18 19 20 21 22 23 24 25 26 27 28 29 30 31 32 33 34 35 36 37 38 39 40 41 42 43 44 45 46 47

000
ASUS41 KALY 200110
RWRALY

NEW YORK STATE HOURLY WEATHER ROUNDUP
NATIONAL WEATHER SERVICE ALBANY NY
800 PM EST FRI DEC 19 2014

NOTE: "FAIR" INDICATES FEW OR NO CLOUDS BELOW 12,000 FEET WITH NO
SIGNIFICANT WEATHER AND/OR NO OBSTRUCTIONS TO VISIBILITY.

NYZ032-033-038>043-046>054-057>066-NYZ062>081-200200-
EAST


CITY           SKY/WX    TMP DP  RH WIND       PRES   REMARKS
ALBANY         CLOUDY    28  19  69 NW12G20   30.17R WCI  18
GLENS FALLS    CLOUDY    27  20  75 CALM      30.17R
POUGHKEEPSIE   CLEAR     29  19  66 NW3       30.15R
NEWBURGH       MOCLDY    30  23  74 NW6       30.15  WCI  24
MONTGOMERY     MOCLDY    31  21  66 NW7       30.14R WCI  24
WHITE PLAINS   CLOUDY    32  20  61 NW13      30.12R WCI  22
ISLIP          MOCLDY    34  22  61 N10       30.12R WCI  26
NEW YORK CITY  MOCLDY    33  21  61 NW16      30.16R WCI  23
CENTRAL PARK   MOCLDY    32  19  58 NW8G17    30.17R WCI  25
$$

NYZ005>009-017-018-044>046-055-056-200200-
CENTRAL


CITY           SKY/WX    TMP DP  RH WIND       PRES   REMARKS
FULTON         CLOUDY    27  20  75 NW3       30.23R
SYRACUSE       FLURRIES  26  21  81 NW3       30.23R
ROME           CLOUDY    25  20  81 NW10      30.23R WCI  15
ELMIRA         CLOUDY    29  21  72 NW6       30.19F WCI  23
BINGHAMTON     CLOUDY    23  19  85 N12       30.13S WCI  12
MONTICELLO     CLOUDY    25  19  80 NW10G17   30.12R WCI  15
$$

NYZ026>034-041>043-200200-
NORTH


CITY           SKY/WX    TMP DP  RH WIND       PRES   REMARKS
WATERTOWN      CLEAR     20  13  74 NE3       30.25R
FORT DRUM      NOT AVBL
MASSENA        PTCLDY    14  11  87 SW6       30.25S WCI   5
SARANAC LAKE   CLOUDY    16  32 100 VRB3      30.11R
PLATTSBURGH    CLEAR     17  15  92 CALM      30.21R
$$

NYZ001>004-010>016-019>021-200200-
WEST


CITY           SKY/WX    TMP DP  RH WIND       PRES   REMARKS
NIAGARA FALLS  CLOUDY    29  22  75 W9        30.24S WCI  20
BUFFALO        CLOUDY    29  21  72 W7        30.24S WCI  22
DUNKIRK        CLOUDY    28  21  75 SW6       30.26S WCI  22
JAMESTOWN      CLOUDY    21  18  86 CALM      30.19R
WELLSVILLE     CLOUDY    22  17  81 NW12      30.16R WCI  10
ROCHESTER      CLOUDY    29  22  75 W6        30.23S WCI  23
PENN YAN       CLOUDY    28  20  71 W5        30.20F WCI  23
$$

             KEY
       WCI = WIND CHILL INDEX
       VSB = VISIBILITY
       HX  = HEAT INDEX
$$


USA.gov is the U.S. government's official web portal to all federal, state and local government web resources and services.